Location: Saint-Hippolyte
(43.6394°N, 4.7559°E)
Time: 16:04:19
(UTC+00:00)

MOS 1 Rocket - Pass Details

Date: 24 October 2020
Orbit: 615 x 829 km, 97.4° (Epoch: 24 November)

Event Time Altitude Azimuth Distance (km) Brightness Sun altitude
Rises 18:52:42 0° 9° (N) 2,995 6.6 -24.1°
Reaches altitude 10° 18:54:53 10° 7° (N) 2,106 5.8 -24.5°
Maximum altitude 18:59:27 67° 285° (WNW) 760 3.6 -25.3°
Drops below altitude 10° 19:04:17 10° 204° (SSW) 2,223 6.0 -26.2°
Sets 19:06:38 0° 201° (SSW) 3,176 6.9 -26.6°
